Location: Les Martinières
(47.2667°N, 1.4410°E)
Time: 03:14:59
(UTC+00:00)

Cosmos 1937 Rocket - Pass Details

Date: 15 May 2026
Orbit: 743 x 774 km, 74.0° (Epoch: 8 June)

Event Time Altitude Azimuth Distance (km) Brightness Sun altitude
Rises 22:21:01 0° 342° (NNW) 3,205 8.3 -20.7°
Reaches altitude 10° 22:23:32 10° 350° (N) 2,273 7.1 -20.9°
Maximum altitude 22:28:22 40° 60° (ENE) 1,093 4.3 -21.2°
Enters shadow 22:30:09 30° 103° (ESE) 1,315 4.4 -21.3°
